Time,TemperatureF,DewpointF,PressureIn,WindDirection,WindDirectionDegrees,WindSpeedMPH,WindSpeedGustMPH,Humidity,HourlyPrecipIn,Conditions,Clouds,dailyrainin,SoftwareType,DateUTC
2013-10-10 00:00:00,46.8,43.4,30.22,NE,49,0.0,0.0,88,0.00,,,0.01,Wunderground v.1.13,2013-10-10 04:00:00,
2013-10-10 00:05:00,46.6,43.5,30.22,NE,49,0.0,0.0,89,0.00,,,0.00,Wunderground v.1.13,2013-10-10 04:05:00,
2013-10-10 00:10:00,46.5,43.4,30.21,NE,49,0.0,0.0,89,0.00,,,0.00,Wunderground v.1.13,2013-10-10 04:10:00,
2013-10-10 00:20:00,46.3,43.5,30.21,NE,49,0.0,0.0,90,0.00,,,0.00,Wunderground v.1.13,2013-10-10 04:20:00,
2013-10-10 00:25:00,46.4,43.6,30.21,NE,49,0.0,0.0,90,0.00,,,0.00,Wunderground v.1.13,2013-10-10 04:25:00,
2013-10-10 00:35:00,46.2,43.4,30.21,NE,49,0.0,0.0,90,0.00,,,0.00,Wunderground v.1.13,2013-10-10 04:35:00,
2013-10-10 00:40:00,46.0,43.2,30.21,NE,49,0.0,0.0,90,0.00,,,0.00,Wunderground v.1.13,2013-10-10 04:40:00,
2013-10-10 00:50:00,45.9,43.1,30.21,NE,49,0.0,0.0,90,0.00,,,0.00,Wunderground v.1.13,2013-10-10 04:50:00,
2013-10-10 01:00:00,45.9,43.1,30.20,NE,49,0.0,0.0,90,0.00,,,0.00,Wunderground v.1.13,2013-10-10 05:00:00,
2013-10-10 01:10:00,45.7,42.9,30.20,NE,49,0.0,0.0,90,0.00,,,0.00,Wunderground v.1.13,2013-10-10 05:10:00,
2013-10-10 01:15:00,45.6,42.8,30.21,NE,49,0.0,0.0,90,0.00,,,0.00,Wunderground v.1.13,2013-10-10 05:15:00,
2013-10-10 01:25:00,45.3,42.5,30.21,NE,49,0.0,0.0,90,0.00,,,0.00,Wunderground v.1.13,2013-10-10 05:25:00,
2013-10-10 01:30:00,45.1,42.3,30.21,NE,49,0.0,0.0,90,0.00,,,0.00,Wunderground v.1.13,2013-10-10 05:30:00,
2013-10-10 01:35:00,44.9,42.1,30.21,NE,49,0.0,0.0,90,0.00,,,0.00,Wunderground v.1.13,2013-10-10 05:35:00,
2013-10-10 01:40:00,44.6,41.8,30.20,NE,49,0.0,0.0,90,0.00,,,0.00,Wunderground v.1.13,2013-10-10 05:40:00,
2013-10-10 01:45:00,44.4,41.7,30.20,NE,49,0.0,0.0,90,0.00,,,0.00,Wunderground v.1.13,2013-10-10 05:45:00,
2013-10-10 01:50:00,44.2,41.5,30.21,NE,49,0.0,0.0,90,0.00,,,0.00,Wunderground v.1.13,2013-10-10 05:50:00,
2013-10-10 02:00:00,43.7,41.0,30.21,NE,49,0.0,0.0,90,0.00,,,0.00,Wunderground v.1.13,2013-10-10 06:00:00,
2013-10-10 02:10:00,43.4,40.9,30.20,NE,49,0.0,0.0,91,0.00,,,0.00,Wunderground v.1.13,2013-10-10 06:10:00,
2013-10-10 02:15:00,43.3,40.8,30.20,NE,49,0.0,0.0,91,0.00,,,0.00,Wunderground v.1.13,2013-10-10 06:15:00,
2013-10-10 02:20:00,43.2,40.8,30.21,NE,49,0.0,0.0,91,0.00,,,0.00,Wunderground v.1.13,2013-10-10 06:20:00,
2013-10-10 02:30:00,43.0,40.8,30.20,NE,49,0.0,0.0,92,0.00,,,0.00,Wunderground v.1.13,2013-10-10 06:30:00,
2013-10-10 02:40:00,42.9,40.7,30.20,NE,49,0.0,0.0,92,0.00,,,0.00,Wunderground v.1.13,2013-10-10 06:40:00,
2013-10-10 02:45:00,42.8,40.6,30.20,NE,49,0.0,0.0,92,0.00,,,0.00,Wunderground v.1.13,2013-10-10 06:45:00,
2013-10-10 02:55:00,42.5,40.3,30.20,NE,49,0.0,0.0,92,0.00,,,0.00,Wunderground v.1.13,2013-10-10 06:55:00,
2013-10-10 03:05:00,42.5,40.6,30.20,NE,49,0.0,0.0,93,0.00,,,0.00,Wunderground v.1.13,2013-10-10 07:05:00,
2013-10-10 03:15:00,42.1,39.9,30.20,NE,49,0.0,0.0,92,0.00,,,0.00,Wunderground v.1.13,2013-10-10 07:15:00,
2013-10-10 03:20:00,42.0,39.8,30.20,NE,49,0.0,0.0,92,0.00,,,0.00,Wunderground v.1.13,2013-10-10 07:20:00,
2013-10-10 03:30:00,42.0,40.1,30.20,NE,49,0.0,0.0,93,0.00,,,0.00,Wunderground v.1.13,2013-10-10 07:30:00,
2013-10-10 03:35:00,42.0,40.1,30.20,NE,49,0.0,0.0,93,0.00,,,0.00,Wunderground v.1.13,2013-10-10 07:35:00,
2013-10-10 03:45:00,41.8,39.9,30.19,NE,49,0.0,0.0,93,0.00,,,0.00,Wunderground v.1.13,2013-10-10 07:45:00,
2013-10-10 03:50:00,41.7,39.8,30.19,NE,49,0.0,0.0,93,0.00,,,0.00,Wunderground v.1.13,2013-10-10 07:50:00,
2013-10-10 04:00:00,41.7,39.8,30.20,NE,49,0.0,0.0,93,0.00,,,0.00,Wunderground v.1.13,2013-10-10 08:00:00,
2013-10-10 04:10:00,41.8,39.9,30.20,NE,49,0.0,0.0,93,0.00,,,0.00,Wunderground v.1.13,2013-10-10 08:10:00,
2013-10-10 04:20:00,41.8,40.2,30.20,NE,49,0.0,0.0,94,0.00,,,0.00,Wunderground v.1.13,2013-10-10 08:20:00,
2013-10-10 04:30:00,41.8,40.2,30.20,NE,49,0.0,0.0,94,0.00,,,0.00,Wunderground v.1.13,2013-10-10 08:30:00,
2013-10-10 04:40:00,41.8,40.2,30.20,NE,49,0.0,0.0,94,0.00,,,0.00,Wunderground v.1.13,2013-10-10 08:40:00,
2013-10-10 04:50:00,42.0,40.4,30.20,NE,49,0.0,0.0,94,0.00,,,0.00,Wunderground v.1.13,2013-10-10 08:50:00,
2013-10-10 05:00:00,42.2,40.6,30.20,NE,49,0.0,0.0,94,0.00,,,0.00,Wunderground v.1.13,2013-10-10 09:00:00,
2013-10-10 05:10:00,41.9,40.3,30.21,NE,49,0.0,1.0,94,0.00,,,0.00,Wunderground v.1.13,2013-10-10 09:10:00,
2013-10-10 05:20:00,41.5,39.9,30.21,NE,49,2.0,2.0,94,0.00,,,0.00,Wunderground v.1.13,2013-10-10 09:20:00,
2013-10-10 05:30:00,41.2,39.3,30.21,NE,49,0.0,0.0,93,0.00,,,0.00,Wunderground v.1.13,2013-10-10 09:30:00,
2013-10-10 05:40:00,41.1,39.5,30.20,NE,49,0.0,0.0,94,0.00,,,0.00,Wunderground v.1.13,2013-10-10 09:40:00,
2013-10-10 05:50:00,41.2,39.6,30.21,NE,49,0.0,1.0,94,0.00,,,0.00,Wunderground v.1.13,2013-10-10 09:50:00,
2013-10-10 05:55:00,41.3,39.7,30.21,NE,49,1.0,1.0,94,0.00,,,0.00,Wunderground v.1.13,2013-10-10 09:55:00,
2013-10-10 06:05:00,41.1,39.5,30.21,NE,49,0.0,0.0,94,0.00,,,0.00,Wunderground v.1.13,2013-10-10 10:05:00,
2013-10-10 06:15:00,40.9,39.3,30.21,NE,49,0.0,0.0,94,0.00,,,0.00,Wunderground v.1.13,2013-10-10 10:15:00,
2013-10-10 06:25:00,40.9,39.3,30.21,NE,49,0.0,0.0,94,0.00,,,0.00,Wunderground v.1.13,2013-10-10 10:25:00,
2013-10-10 06:30:00,41.0,39.4,30.21,NE,49,0.0,0.0,94,0.00,,,0.00,Wunderground v.1.13,2013-10-10 10:30:00,
2013-10-10 06:40:00,41.0,41.0,30.22,NE,49,0.0,0.0,100,0.00,,,0.00,Wunderground v.1.13,2013-10-10 10:40:00,
2013-10-10 06:45:00,41.0,39.4,30.22,NE,49,0.0,0.0,94,0.00,,,0.00,Wunderground v.1.13,2013-10-10 10:45:00,
2013-10-10 06:55:00,40.7,39.1,30.22,NE,49,0.0,0.0,94,0.00,,,0.00,Wunderground v.1.13,2013-10-10 10:55:00,
2013-10-10 07:05:00,40.5,38.9,30.22,NE,49,0.0,0.0,94,0.00,,,0.00,Wunderground v.1.13,2013-10-10 11:05:00,
2013-10-10 07:15:00,40.6,39.0,30.22,NE,49,0.0,0.0,94,0.00,,,0.00,Wunderground v.1.13,2013-10-10 11:15:00,
2013-10-10 07:25:00,40.6,39.0,30.22,NE,49,0.0,0.0,94,0.00,,,0.00,Wunderground v.1.13,2013-10-10 11:25:00,
2013-10-10 07:35:00,40.6,39.0,30.22,NE,49,0.0,0.0,94,0.00,,,0.00,Wunderground v.1.13,2013-10-10 11:35:00,
2013-10-10 07:45:00,40.6,39.0,30.22,NE,49,0.0,0.0,94,0.00,,,0.00,Wunderground v.1.13,2013-10-10 11:45:00,
2013-10-10 07:55:00,40.6,39.0,30.22,NE,49,0.0,0.0,94,0.00,,,0.00,Wunderground v.1.13,2013-10-10 11:55:00,
2013-10-10 08:05:00,40.6,39.0,30.22,NE,49,0.0,0.0,94,0.00,,,0.00,Wunderground v.1.13,2013-10-10 12:05:00,
2013-10-10 08:10:00,40.7,39.1,30.22,NE,49,0.0,0.0,94,0.00,,,0.00,Wunderground v.1.13,2013-10-10 12:10:00,
2013-10-10 08:20:00,41.1,39.8,30.22,NE,49,0.0,0.0,95,0.00,,,0.01,Wunderground v.1.13,2013-10-10 12:20:00,
2013-10-10 08:30:00,41.8,40.5,30.22,NE,49,0.0,0.0,95,0.00,,,0.01,Wunderground v.1.13,2013-10-10 12:30:00,
2013-10-10 08:40:00,43.2,42.1,30.22,NE,49,0.0,0.0,96,0.00,,,0.01,Wunderground v.1.13,2013-10-10 12:40:00,
2013-10-10 08:45:00,43.8,42.7,30.22,NE,49,0.0,0.0,96,0.00,,,0.01,Wunderground v.1.13,2013-10-10 12:45:00,
2013-10-10 08:50:00,44.5,43.4,30.22,NE,49,0.0,0.0,96,0.00,,,0.01,Wunderground v.1.13,2013-10-10 12:50:00,
2013-10-10 09:00:00,45.4,44.1,30.22,NE,49,0.0,0.0,95,0.00,,,0.01,Wunderground v.1.13,2013-10-10 13:00:00,
2013-10-10 09:10:00,46.5,45.1,30.22,NE,49,0.0,0.0,95,0.00,,,0.01,Wunderground v.1.13,2013-10-10 13:10:00,
2013-10-10 09:15:00,47.3,45.9,30.22,NNE,22,0.0,0.0,95,0.00,,,0.01,Wunderground v.1.13,2013-10-10 13:15:00,
2013-10-10 09:25:00,49.3,47.4,30.22,NNE,21,0.0,0.0,93,0.00,,,0.01,Wunderground v.1.13,2013-10-10 13:25:00,
2013-10-10 09:35:00,51.2,48.1,30.22,NNE,21,0.0,0.0,89,0.00,,,0.01,Wunderground v.1.13,2013-10-10 13:35:00,
2013-10-10 09:45:00,52.4,48.0,30.22,NNE,22,0.0,0.0,85,0.00,,,0.01,Wunderground v.1.13,2013-10-10 13:45:00,
2013-10-10 09:55:00,53.3,47.3,30.22,NNE,22,1.0,1.0,80,0.00,,,0.01,Wunderground v.1.13,2013-10-10 13:55:00,
2013-10-10 10:00:00,53.6,47.6,30.22,NNE,22,1.0,1.0,80,0.00,,,0.01,Wunderground v.1.13,2013-10-10 14:00:00,
2013-10-10 10:05:00,54.1,48.1,30.22,NNE,22,1.0,1.0,80,0.00,,,0.01,Wunderground v.1.13,2013-10-10 14:05:00,
2013-10-10 10:10:00,54.7,48.0,30.22,NNE,22,0.0,0.0,78,0.00,,,0.01,Wunderground v.1.13,2013-10-10 14:10:00,
2013-10-10 10:20:00,55.8,48.0,30.22,NNE,22,0.0,0.0,75,0.00,,,0.01,Wunderground v.1.13,2013-10-10 14:20:00,
2013-10-10 10:25:00,56.1,47.9,30.22,NNE,22,0.0,0.0,74,0.00,,,0.01,Wunderground v.1.13,2013-10-10 14:25:00,
2013-10-10 10:35:00,56.9,47.6,30.22,NNE,22,1.0,2.0,71,0.00,,,0.01,Wunderground v.1.13,2013-10-10 14:35:00,
2013-10-10 10:45:00,57.5,47.4,30.22,NNE,22,0.0,0.0,69,0.00,,,0.01,Wunderground v.1.13,2013-10-10 14:45:00,
2013-10-10 10:55:00,58.6,49.2,30.22,NNE,22,1.0,1.0,71,0.00,,,0.01,Wunderground v.1.13,2013-10-10 14:55:00,
2013-10-10 11:05:00,59.1,49.3,30.21,NE,38,1.0,1.0,70,0.00,,,0.01,Wunderground v.1.13,2013-10-10 15:05:00,
2013-10-10 11:15:00,60.1,48.7,30.21,NE,38,1.0,3.0,66,0.00,,,0.01,Wunderground v.1.13,2013-10-10 15:15:00,
2013-10-10 11:25:00,60.5,48.7,30.20,NNE,24,1.0,3.0,65,0.00,,,0.01,Wunderground v.1.13,2013-10-10 15:25:00,
2013-10-10 11:35:00,61.0,47.9,30.21,NNE,24,1.0,1.0,62,0.00,,,0.01,Wunderground v.1.13,2013-10-10 15:35:00,
2013-10-10 11:45:00,61.7,49.0,30.20,NNE,24,0.0,0.0,63,0.00,,,0.01,Wunderground v.1.13,2013-10-10 15:45:00,
2013-10-10 11:55:00,62.2,47.7,30.20,NE,34,1.0,1.0,59,0.00,,,0.01,Wunderground v.1.13,2013-10-10 15:55:00,
2013-10-10 12:05:00,62.5,48.0,30.20,NE,40,1.0,1.0,59,0.00,,,0.01,Wunderground v.1.13,2013-10-10 16:05:00,
2013-10-10 12:15:00,63.1,47.1,30.20,NE,36,1.0,2.0,56,0.00,,,0.01,Wunderground v.1.13,2013-10-10 16:15:00,
2013-10-10 12:20:00,63.5,47.0,30.20,NE,41,1.0,1.0,55,0.00,,,0.01,Wunderground v.1.13,2013-10-10 16:20:00,
2013-10-10 12:30:00,64.8,47.3,30.20,NNE,16,0.0,0.0,53,0.00,,,0.01,Wunderground v.1.13,2013-10-10 16:30:00,
2013-10-10 12:35:00,65.5,47.4,30.20,NNE,15,0.0,0.0,52,0.00,,,0.01,Wunderground v.1.13,2013-10-10 16:35:00,
2013-10-10 12:45:00,66.3,48.1,30.19,NNE,15,1.0,1.0,52,0.00,,,0.01,Wunderground v.1.13,2013-10-10 16:45:00,
2013-10-10 12:50:00,66.2,48.0,30.19,ENE,69,1.0,1.0,52,0.00,,,0.01,Wunderground v.1.13,2013-10-10 16:50:00,
2013-10-10 12:55:00,66.5,48.8,30.19,NE,38,1.0,1.0,53,0.00,,,0.01,Wunderground v.1.13,2013-10-10 16:55:00,
2013-10-10 13:05:00,67.2,50.0,30.18,NE,34,1.0,1.0,54,0.00,,,0.01,Wunderground v.1.13,2013-10-10 17:05:00,
2013-10-10 13:15:00,67.4,47.0,30.18,NNW,327,2.0,3.0,48,0.00,,,0.01,Wunderground v.1.13,2013-10-10 17:15:00,
2013-10-10 13:25:00,68.2,46.0,30.18,NNW,333,1.0,1.0,45,0.00,,,0.01,Wunderground v.1.13,2013-10-10 17:25:00,
2013-10-10 13:30:00,68.4,45.0,30.18,NNW,333,0.0,2.0,43,0.00,,,0.01,Wunderground v.1.13,2013-10-10 17:30:00,
2013-10-10 13:35:00,68.6,46.4,30.18,NNE,32,1.0,1.0,45,0.00,,,0.01,Wunderground v.1.13,2013-10-10 17:35:00,
2013-10-10 13:45:00,69.0,44.3,30.17,NE,55,1.0,2.0,41,0.00,,,0.01,Wunderground v.1.13,2013-10-10 17:45:00,
2013-10-10 13:55:00,68.7,45.9,30.17,NE,52,2.0,2.0,44,0.00,,,0.01,Wunderground v.1.13,2013-10-10 17:55:00,
2013-10-10 14:05:00,69.2,45.1,30.16,NE,49,1.0,1.0,42,0.00,,,0.01,Wunderground v.1.13,2013-10-10 18:05:00,
2013-10-10 14:10:00,69.5,46.6,30.16,NE,49,0.0,1.0,44,0.00,,,0.01,Wunderground v.1.13,2013-10-10 18:10:00,
2013-10-10 14:15:00,70.1,47.8,30.16,NE,47,0.0,0.0,45,0.00,,,0.01,Wunderground v.1.13,2013-10-10 18:15:00,
2013-10-10 14:20:00,70.3,47.3,30.16,NE,47,0.0,2.0,44,0.00,,,0.01,Wunderground v.1.13,2013-10-10 18:20:00,
2013-10-10 14:25:00,70.2,47.3,30.16,NE,47,0.0,0.0,44,0.00,,,0.01,Wunderground v.1.13,2013-10-10 18:25:00,
2013-10-10 14:35:00,70.9,45.4,30.15,NE,48,0.0,0.0,40,0.00,,,0.01,Wunderground v.1.13,2013-10-10 18:35:00,
2013-10-10 14:45:00,70.6,47.0,30.15,NE,48,0.0,0.0,43,0.00,,,0.01,Wunderground v.1.13,2013-10-10 18:45:00,
2013-10-10 14:55:00,71.7,47.4,30.14,WNW,288,0.0,2.0,42,0.00,,,0.01,Wunderground v.1.13,2013-10-10 18:55:00,
2013-10-10 15:05:00,72.4,48.6,30.14,WNW,289,1.0,1.0,43,0.00,,,0.01,Wunderground v.1.13,2013-10-10 19:05:00,
2013-10-10 15:10:00,73.0,47.9,30.14,WNW,289,0.0,1.0,41,0.00,,,0.01,Wunderground v.1.13,2013-10-10 19:10:00,
2013-10-10 15:20:00,72.7,46.3,30.14,North,5,1.0,1.0,39,0.00,,,0.01,Wunderground v.1.13,2013-10-10 19:20:00,
2013-10-10 15:30:00,72.6,46.9,30.13,East,79,1.0,1.0,40,0.00,,,0.01,Wunderground v.1.13,2013-10-10 19:30:00,
2013-10-10 15:40:00,72.4,44.6,30.14,East,79,1.0,1.0,37,0.00,,,0.01,Wunderground v.1.13,2013-10-10 19:40:00,
2013-10-10 15:50:00,73.1,44.5,30.13,East,79,0.0,0.0,36,0.00,,,0.01,Wunderground v.1.13,2013-10-10 19:50:00,
2013-10-10 16:00:00,73.9,45.3,30.13,NNE,27,0.0,0.0,36,0.00,,,0.01,Wunderground v.1.13,2013-10-10 20:00:00,
2013-10-10 16:10:00,74.6,44.4,30.13,NNE,27,0.0,0.0,34,0.00,,,0.01,Wunderground v.1.13,2013-10-10 20:10:00,
2013-10-10 16:20:00,74.8,44.5,30.13,NNE,32,0.0,0.0,34,0.00,,,0.01,Wunderground v.1.13,2013-10-10 20:20:00,
2013-10-10 16:25:00,74.7,46.0,30.13,NNE,32,0.0,0.0,36,0.00,,,0.01,Wunderground v.1.13,2013-10-10 20:25:00,
2013-10-10 16:35:00,75.4,46.6,30.13,NNE,32,0.0,0.0,36,0.00,,,0.01,Wunderground v.1.13,2013-10-10 20:35:00,
2013-10-10 16:40:00,75.5,46.7,30.13,NNE,31,0.0,2.0,36,0.00,,,0.01,Wunderground v.1.13,2013-10-10 20:40:00,
2013-10-10 16:50:00,75.5,44.4,30.12,NNE,30,0.0,1.0,33,0.00,,,0.01,Wunderground v.1.13,2013-10-10 20:50:00,
2013-10-10 17:00:00,75.5,46.7,30.12,NNE,30,0.0,0.0,36,0.00,,,0.01,Wunderground v.1.13,2013-10-10 21:00:00,
2013-10-10 17:05:00,75.3,45.0,30.13,NNE,30,0.0,0.0,34,0.00,,,0.01,Wunderground v.1.13,2013-10-10 21:05:00,
2013-10-10 17:15:00,74.1,45.4,30.12,ENE,63,0.0,2.0,36,0.00,,,0.01,Wunderground v.1.13,2013-10-10 21:15:00,
2013-10-10 17:25:00,73.1,46.0,30.12,ENE,63,1.0,1.0,38,0.00,,,0.01,Wunderground v.1.13,2013-10-10 21:25:00,
2013-10-10 17:35:00,73.1,45.3,30.12,ENE,63,0.0,0.0,37,0.00,,,0.01,Wunderground v.1.13,2013-10-10 21:35:00,
2013-10-10 17:40:00,73.2,46.1,30.11,ENE,63,0.0,0.0,38,0.00,,,0.01,Wunderground v.1.13,2013-10-10 21:40:00,
2013-10-10 17:45:00,73.2,45.4,30.11,ENE,63,0.0,0.0,37,0.00,,,0.01,Wunderground v.1.13,2013-10-10 21:45:00,
2013-10-10 17:55:00,72.9,45.8,30.11,ENE,63,0.0,0.0,38,0.00,,,0.01,Wunderground v.1.13,2013-10-10 21:55:00,
2013-10-10 18:05:00,72.4,47.4,30.11,ENE,63,0.0,0.0,41,0.00,,,0.01,Wunderground v.1.13,2013-10-10 22:05:00,
2013-10-10 18:15:00,72.1,47.7,30.11,ENE,63,0.0,0.0,42,0.00,,,0.01,Wunderground v.1.13,2013-10-10 22:15:00,
2013-10-10 18:20:00,71.9,47.6,30.11,ENE,63,0.0,0.0,42,0.00,,,0.01,Wunderground v.1.13,2013-10-10 22:20:00,
2013-10-10 18:30:00,71.6,49.1,30.11,ENE,63,0.0,0.0,45,0.00,,,0.01,Wunderground v.1.13,2013-10-10 22:30:00,
2013-10-10 18:40:00,70.9,49.1,30.11,ENE,63,0.0,0.0,46,0.00,,,0.01,Wunderground v.1.13,2013-10-10 22:40:00,
2013-10-10 18:45:00,70.6,50.0,30.11,ENE,63,0.0,0.0,48,0.00,,,0.01,Wunderground v.1.13,2013-10-10 22:45:00,
2013-10-10 18:55:00,69.2,49.8,30.11,ENE,63,0.0,0.0,50,0.00,,,0.01,Wunderground v.1.13,2013-10-10 22:55:00,
2013-10-10 19:05:00,67.8,51.5,30.11,ENE,63,0.0,0.0,56,0.00,,,0.01,Wunderground v.1.13,2013-10-10 23:05:00,
2013-10-10 19:10:00,66.9,52.1,30.11,ENE,63,0.0,0.0,59,0.00,,,0.01,Wunderground v.1.13,2013-10-10 23:10:00,
2013-10-10 19:15:00,66.1,52.3,30.11,ENE,63,0.0,0.0,61,0.00,,,0.01,Wunderground v.1.13,2013-10-10 23:15:00,
2013-10-10 19:20:00,65.3,52.4,30.11,ENE,63,0.0,0.0,63,0.00,,,0.01,Wunderground v.1.13,2013-10-10 23:20:00,
2013-10-10 19:25:00,64.5,51.6,30.11,ENE,63,0.0,0.0,63,0.00,,,0.01,Wunderground v.1.13,2013-10-10 23:25:00,
2013-10-10 19:35:00,63.4,51.8,30.11,ENE,63,0.0,0.0,66,0.00,,,0.01,Wunderground v.1.13,2013-10-10 23:35:00,
2013-10-10 19:40:00,62.8,51.7,30.11,ENE,63,0.0,0.0,67,0.00,,,0.01,Wunderground v.1.13,2013-10-10 23:40:00,
2013-10-10 19:50:00,62.0,52.1,30.10,ENE,63,0.0,0.0,70,0.00,,,0.01,Wunderground v.1.13,2013-10-10 23:50:00,
2013-10-10 20:00:00,60.9,51.8,30.11,NNE,30,0.0,3.0,72,0.00,,,0.01,Wunderground v.1.13,2013-10-11 00:00:00,
2013-10-10 20:10:00,60.0,51.3,30.11,NW,320,1.0,1.0,73,0.00,,,0.01,Wunderground v.1.13,2013-10-11 00:10:00,
2013-10-10 20:20:00,59.3,50.6,30.11,NW,320,1.0,1.0,73,0.00,,,0.01,Wunderground v.1.13,2013-10-11 00:20:00,
2013-10-10 20:30:00,58.7,50.1,30.11,NW,320,1.0,1.0,73,0.00,,,0.01,Wunderground v.1.13,2013-10-11 00:30:00,
2013-10-10 20:35:00,58.8,50.2,30.11,NW,320,1.0,1.0,73,0.00,,,0.01,Wunderground v.1.13,2013-10-11 00:35:00,
2013-10-10 20:45:00,58.2,50.7,30.11,NW,320,0.0,0.0,76,0.00,,,0.01,Wunderground v.1.13,2013-10-11 00:45:00,
2013-10-10 20:55:00,57.4,50.2,30.11,NW,320,0.0,0.0,77,0.00,,,0.01,Wunderground v.1.13,2013-10-11 00:55:00,
2013-10-10 21:05:00,56.8,50.4,30.11,NW,320,0.0,0.0,79,0.00,,,0.01,Wunderground v.1.13,2013-10-11 01:05:00,
2013-10-10 21:10:00,56.4,50.3,30.11,NW,320,0.0,0.0,80,0.00,,,0.01,Wunderground v.1.13,2013-10-11 01:10:00,
2013-10-10 21:20:00,56.0,50.3,30.11,NW,320,0.0,0.0,81,0.00,,,0.01,Wunderground v.1.13,2013-10-11 01:20:00,
2013-10-10 21:30:00,55.4,50.0,30.11,NW,320,0.0,0.0,82,0.00,,,0.01,Wunderground v.1.13,2013-10-11 01:30:00,
2013-10-10 21:40:00,55.0,49.9,30.10,NW,320,0.0,0.0,83,0.00,,,0.01,Wunderground v.1.13,2013-10-11 01:40:00,
2013-10-10 21:45:00,54.7,49.6,30.11,NW,320,0.0,0.0,83,0.00,,,0.01,Wunderground v.1.13,2013-10-11 01:45:00,
2013-10-10 21:50:00,54.5,49.8,30.11,NW,320,0.0,0.0,84,0.00,,,0.01,Wunderground v.1.13,2013-10-11 01:50:00,
2013-10-10 21:55:00,54.3,49.6,30.11,NW,320,0.0,0.0,84,0.00,,,0.01,Wunderground v.1.13,2013-10-11 01:55:00,
2013-10-10 22:00:00,54.3,49.6,30.11,NW,320,1.0,3.0,84,0.00,,,0.01,Wunderground v.1.13,2013-10-11 02:00:00,
2013-10-10 22:10:00,54.4,49.7,30.11,NW,320,1.0,1.0,84,0.00,,,0.01,Wunderground v.1.13,2013-10-11 02:10:00,
2013-10-10 22:20:00,55.1,49.4,30.11,NW,320,2.0,2.0,81,0.00,,,0.01,Wunderground v.1.13,2013-10-11 02:20:00,
2013-10-10 22:30:00,54.9,49.2,30.11,NW,320,0.0,0.0,81,0.00,,,0.01,Wunderground v.1.13,2013-10-11 02:30:00,
2013-10-10 22:40:00,54.3,48.9,30.11,NW,320,0.0,0.0,82,0.00,,,0.01,Wunderground v.1.13,2013-10-11 02:40:00,
2013-10-10 22:50:00,53.5,48.5,30.11,NW,320,0.0,0.0,83,0.00,,,0.01,Wunderground v.1.13,2013-10-11 02:50:00,
2013-10-10 23:00:00,53.1,48.4,30.11,NW,320,0.0,0.0,84,0.00,,,0.01,Wunderground v.1.13,2013-10-11 03:00:00,
2013-10-10 23:05:00,53.0,48.3,30.11,NW,320,0.0,0.0,84,0.00,,,0.01,Wunderground v.1.13,2013-10-11 03:05:00,
2013-10-10 23:15:00,53.0,48.3,30.11,NW,320,0.0,0.0,84,0.00,,,0.01,Wunderground v.1.13,2013-10-11 03:15:00,
2013-10-10 23:25:00,53.1,48.4,30.11,NW,320,0.0,0.0,84,0.00,,,0.01,Wunderground v.1.13,2013-10-11 03:25:00,
2013-10-10 23:35:00,53.0,48.3,30.10,NW,320,0.0,0.0,84,0.00,,,0.01,Wunderground v.1.13,2013-10-11 03:35:00,
2013-10-10 23:45:00,53.0,47.7,30.10,NW,320,1.0,1.0,82,0.00,,,0.01,Wunderground v.1.13,2013-10-11 03:45:00,
2013-10-10 23:55:00,52.6,47.6,30.10,NW,320,0.0,3.0,83,0.00,,,0.01,Wunderground v.1.13,2013-10-11 03:55:00,